Location: Eboldshausen
(51.7766°N, 10.0050°E)
Time: 17:00:18
(UTC+00:00)

ATLAS CENTAUR R/B - Pass Details

Date: 15 November 2025
Orbit: 342 x 419 km, 64.6° (Epoch: 13 December)

Event Time Altitude Azimuth Distance (km) Brightness Sun altitude
Rises 18:26:40 0° 286° (WNW) 2,461 5.9 -27.2°
Reaches altitude 10° 18:29:47 10° 315° (NW) 1,588 4.2 -27.7°
Enters shadow 18:30:44 12° 331° (NNW) 1,451 3.8 -27.8°
